Temp
58 58 57 57 57 57 57 57 57 56 56 56 56 57 57 57 57 57 56 56 56 57 57 58 59 60 55 50 53 66 69 68 68 66 61 59 56 55 54 56 55 57 56 59 59 58 56
58 57 57 57 57 57 57 57 57 56 56 56 56 56 56 56 56 56 56 56 56 56 57 58 59 60 52 46 64 64 64 66 62 61 60 59 54 55 55 54 54 58 58 56 57 54 54
58 58 57 57 57 57 57 56 56 56 56 56 56 56 56 56 55 55 55 55 55 55 56 58 59 58 50 54 60 61 64 59 61 61 58 59 58 56 56 54 58 57 53 55 53 53 51
58 58 58 57 57 57 57 56 56 56 56 56 56 56 55 55 55 55 55 54 55 56 57 58 59 52 49 66 60 65 59 61 63 63 62 63 61 56 55 57 55 51 48 42 49 49 51
58 58 57 57 57 57 57 56 56 56 56 56 56 55 55 54 54 54 54 54 55 56 57 58 52 52 50 67 61 63 60 61 64 62 62 71 60 53 53 45 43 44 37 41 44 48 47
58 58 58 57 57 57 57 57 56 56 56 55 56 55 55 54 54 53 53 54 55 56 60 63 62 48 56 56 62 65 62 64 60 60 58 56 49 45 43 42 35 38 37 36 37 42 43
57 58 58 58 57 57 57 58 57 56 56 55 55 55 55 54 54 53 48 48 48 48 50 50 51 52 57 62 63 61 62 62 58 54 46 49 44 38 43 45 47 44 40 37 34 44 39
54 55 56 57 57 57 57 57 57 56 55 55 55 55 55 54 54 53 46 48 49 50 42 55 55 56 61 59 54 58 61 54 53 45 47 44 39 47 51 51 49 46 41 38 39 43 40
53 54 55 55 57 57 57 57 56 56 55 55 55 54 54 53 53 48 44 50 56 54 40 50 56 56 58 59 52 52 56 52 49 46 45 41 45 53 50 46 45 42 40 38 38 40 39
53 53 53 54 54 55 56 56 56 56 55 55 54 54 53 53 48 43 46 53 52 52 32 44 50 56 59 57 50 57 57 52 50 44 47 46 50 49 45 44 44 38 46 45 43 36 28
53 53 53 52 52 53 54 55 55 55 55 55 54 54 53 52 42 45 50 52 51 48 14 47 49 61 57 52 52 51 57 54 46 47 46 41 44 44 43 43 47 42 47 45 43 36 33
52 52 53 53 52 51 52 54 54 54 54 54 54 53 53 47 43 47 49 49 48 25 16 43 51 48 48 49 50 52 52 55 54 48 47 44 48 46 45 49 49 49 44 41 38 35 22
51 51 52 52 52 51 51 52 54 54 54 54 54 53 50 50 43 47 46 44 25 16 44 41 43 47 45 44 46 48 47 43 39 36 34 41 42 45 50 43 46 42 35 25 24 20 21
52 51 51 52 52 52 50 50 51 53 53 54 53 52 48 49 48 46 44 36 14 32 37 48 46 45 41 45 44 44 43 39 41 41 36 31 30 41 48 43 39 37 35 27 24 21 26
51 51 50 50 51 51 51 50 50 51 52 53 51 42 41 45 46 44 39 17 23 33 45 45 44 38 39 44 43 42 39 38 42 43 34 32 31 46 48 47 45 38 28 37 30 30 26
50 50 50 50 50 50 51 50 50 50 51 52 40 39 40 46 47 43 32 29 33 43 47 45 38 40 34 39 39 38 38 43 43 45 45 39 32 43 46 48 46 41 43 28 26 14 17
49 50 50 50 50 50 50 50 49 50 50 51 39 35 44 47 47 39 22 29 38 47 48 43 40 39 41 39 39 35 38 43 45 45 45 42 34 36 43 38 34 36 32 30 30 26 19
49 49 50 50 50 50 50 50 49 49 49 47 37 27 44 45 30 27 29 35 45 45 48 46 45 44 41 41 39 38 38 43 47 46 40 41 35 27 34 43 45 41 35 32 17 15 18
49 49 48 50 50 49 49 49 49 48 48 42 35 33 45 43 19 18 31 37 43 42 42 42 42 45 45 40 35 39 40 44 46 43 39 41 30 25 30 35 40 36 37 36 31 26 17
48 49 48 49 50 50 50 49 48 48 47 42 36 24 32 40 33 31 32 33 34 44 43 44 43 43 41 38 39 35 38 43 43 43 48 44 33 30 25 30 34 33 36 36 33 23 24
48 48 48 48 49 50 49 49 49 48 47 40 36 31 33 25 32 32 34 36 34 36 43 44 40 41 39 30 34 34 38 39 42 46 40 39 31 34 35 38 38 37 36 35 32 33 28
48 48 48 48 48 49 49 49 49 48 45 36 31 34 33 33 35 35 35 32 34 38 39 38 38 41 39 35 38 33 37 36 37 38 36 36 28 32 23 36 37 35 37 37 38 37 36
47 48 48 48 48 48 49 49 49 48 44 34 36 39 36 33 31 32 32 35 36 39 40 43 41 39 36 41 45 44 43 42 41 36 33 33 29 26 22 33 34 27 35 37 38 40 40
47 47 48 48 48 48 48 49 49 49 45 38 36 35 30 29 30 32 37 38 37 39 37 43 43 39 43 46 44 43 41 40 39 37 38 31 30 24 17 28 12 34 41 43 41 41 44
47 47 47 48 48 48 48 48 49 49 48 39 38 35 32 24 31 34 37 37 39 41 39 40 43 47 47 41 31 26 24 28 26 37 36 37 29 18 17 18 30 36 40 38 37 38 45
47 47 47 47 47 47 47 47 48 49 49 40 39 39 34 26 26 32 36 39 34 31 33 38 46 47 43 32 29 19 18 26 26 31 38 35 32 24 17 12 17 34 41 45 45 30 44
46 47 47 47 47 47 47 47 47 48 49 39 38 39 34 28 30 34 30 31 41 36 32 36 39 39 43 25 15 19 23 34 27 27 27 27 21 18 10 14 27 39 43 45 29 33 41
46 46 46 47 47 47 48 47 47 48 48 39 35 40 35 31 30 38 39 32 34 38 32 37 35 35 30 28 24 23 23 29 30 33 31 29 22 16 19 11 20 42 41 36 39 39 42
45 46 46 46 47 47 47 47 47 47 47 45 34 40 40 32 30 34 37 41 41 40 35 36 36 35 35 28 24 26 26 25 28 23 36 28 31 28 29 28 39 41 40 44 43 43 42
MSLP
1024.10 1023.95 1023.90 1023.82 1023.77 1023.65 1023.48 1023.29 1023.13 1022.94 1022.65 1022.37 1022.06 1021.70 1021.32 1020.89 1020.45 1020.04 1019.62 1019.24 1018.82 1018.27 1017.74 1017.33 1016.87 1016.34 1015.89 1015.64 1014.75 1013.59 1013.46 1013.21 1012.92 1012.85 1013.27 1013.22 1013.15 1013.14 1013.15 1013.24 1013.43 1014.10 1014.87 1015.13 1015.80 1016.37 1017.37
1024.09 1023.95 1023.87 1023.83 1023.70 1023.54 1023.38 1023.27 1023.13 1022.92 1022.69 1022.38 1022.02 1021.69 1021.30 1020.86 1020.37 1019.92 1019.58 1019.12 1018.65 1018.20 1017.66 1017.10 1016.74 1016.23 1015.79 1015.11 1013.71 1013.59 1013.65 1013.41 1013.28 1013.15 1013.32 1013.24 1013.39 1013.35 1013.45 1013.58 1013.79 1014.36 1015.00 1015.81 1016.81 1017.55 1018.38
1023.79 1023.82 1023.73 1023.67 1023.65 1023.36 1023.25 1023.22 1023.07 1022.87 1022.63 1022.37 1022.02 1021.62 1021.19 1020.79 1020.35 1019.85 1019.35 1018.87 1018.40 1017.88 1017.36 1016.90 1016.56 1016.63 1016.16 1014.53 1013.63 1013.68 1013.62 1013.40 1013.05 1013.22 1013.34 1013.27 1013.35 1013.43 1013.44 1013.94 1014.27 1014.86 1015.90 1016.78 1017.95 1018.15 1019.00
1023.61 1023.58 1023.48 1023.36 1023.51 1023.25 1023.17 1023.13 1023.01 1022.84 1022.60 1022.33 1022.01 1021.62 1021.19 1020.75 1020.26 1019.66 1019.03 1018.47 1017.85 1017.40 1017.01 1016.72 1016.64 1016.71 1015.49 1013.68 1013.66 1013.68 1013.46 1013.20 1012.99 1012.96 1013.06 1012.98 1013.19 1013.52 1013.79 1014.35 1015.02 1015.79 1016.82 1017.91 1019.05 1019.04 1020.01
1023.64 1023.46 1023.35 1023.24 1023.19 1023.17 1022.91 1022.88 1022.82 1022.69 1022.52 1022.25 1021.91 1021.53 1021.06 1020.59 1020.08 1019.46 1018.71 1017.92 1017.32 1016.91 1016.68 1016.52 1016.56 1016.05 1015.05 1013.64 1013.57 1013.39 1013.29 1013.19 1013.02 1013.00 1013.02 1013.09 1013.30 1014.13 1014.46 1015.29 1016.40 1017.29 1018.14 1018.80 1019.70 1020.12 1020.32
1023.30 1023.35 1023.18 1023.11 1022.99 1022.97 1022.82 1022.58 1022.50 1022.47 1022.33 1022.11 1021.80 1021.40 1020.91 1020.40 1019.87 1019.29 1018.45 1017.29 1016.64 1016.56 1016.15 1016.11 1015.99 1016.03 1014.82 1014.11 1013.71 1013.43 1013.17 1013.13 1013.37 1013.39 1013.48 1013.68 1014.60 1015.23 1015.88 1016.24 1017.27 1018.01 1018.98 1019.94 1021.10 1022.53 1022.40
1023.06 1022.89 1022.96 1022.90 1022.78 1022.81 1022.69 1022.47 1022.24 1022.13 1022.07 1021.98 1021.71 1021.35 1020.86 1020.29 1019.75 1019.20 1018.47 1017.26 1017.31 1017.17 1016.81 1016.24 1015.89 1015.49 1014.66 1014.11 1013.72 1013.69 1013.48 1013.34 1013.71 1013.98 1014.73 1015.20 1016.05 1016.76 1016.79 1016.58 1016.86 1017.96 1019.03 1020.73 1022.27 1022.89 1023.80
1023.37 1022.95 1022.72 1022.69 1022.62 1022.53 1022.47 1022.34 1022.17 1021.99 1021.92 1021.79 1021.60 1021.27 1020.80 1020.24 1019.65 1019.06 1018.96 1018.57 1018.13 1018.19 1017.52 1015.89 1015.68 1015.39 1014.51 1014.08 1014.09 1013.91 1013.73 1014.08 1014.32 1014.96 1015.44 1016.30 1016.89 1016.96 1016.85 1016.94 1017.46 1018.55 1019.65 1021.46 1022.77 1023.47 1024.17
1023.59 1023.18 1022.68 1022.62 1022.38 1022.25 1022.15 1022.09 1022.02 1021.95 1021.85 1021.61 1021.48 1021.20 1020.71 1020.11 1019.38 1019.18 1019.25 1018.95 1018.18 1017.77 1017.92 1015.99 1015.12 1014.61 1014.16 1014.14 1014.33 1014.16 1014.15 1014.49 1014.96 1015.58 1016.16 1016.72 1017.25 1016.95 1017.02 1017.69 1018.27 1019.38 1019.93 1020.82 1022.15 1023.73 1024.60
1023.63 1023.52 1023.11 1022.71 1022.52 1022.27 1021.96 1021.84 1021.79 1021.71 1021.65 1021.57 1021.34 1021.13 1020.75 1019.94 1019.65 1019.82 1019.30 1018.75 1018.28 1017.88 1018.26 1015.94 1014.76 1013.85 1013.89 1014.07 1014.42 1014.29 1014.26 1014.75 1015.33 1016.21 1016.61 1017.35 1017.35 1017.49 1017.73 1018.32 1018.61 1019.49 1019.86 1020.61 1021.94 1023.22 1024.62
1023.70 1023.46 1023.25 1023.01 1022.72 1022.31 1021.96 1021.76 1021.68 1021.57 1021.46 1021.42 1021.31 1021.10 1020.82 1020.55 1020.57 1020.02 1019.56 1018.73 1018.22 1018.30 1018.18 1015.71 1014.47 1013.61 1013.87 1014.47 1014.54 1014.59 1014.43 1014.71 1015.51 1016.27 1016.92 1018.07 1017.89 1018.02 1018.27 1018.56 1018.88 1019.64 1020.05 1020.90 1021.92 1023.24 1024.49
1023.78 1023.41 1023.10 1022.88 1022.68 1022.35 1022.07 1021.56 1021.45 1021.35 1021.33 1021.25 1021.15 1021.02 1020.86 1020.78 1020.81 1019.92 1019.35 1018.74 1018.67 1019.52 1017.99 1015.68 1014.52 1014.29 1014.69 1014.74 1014.73 1014.77 1014.80 1014.88 1015.66 1016.75 1017.34 1018.03 1017.96 1018.07 1018.24 1018.59 1019.02 1019.65 1020.64 1021.72 1022.74 1023.94 1025.26
1023.78 1023.51 1023.08 1022.74 1022.46 1022.36 1022.15 1021.67 1021.35 1021.16 1021.09 1021.08 1021.02 1020.92 1020.93 1020.90 1020.27 1019.71 1019.33 1019.43 1020.49 1019.46 1017.17 1015.97 1015.13 1014.87 1015.14 1015.32 1015.26 1015.09 1015.34 1015.77 1016.38 1017.69 1018.64 1018.69 1018.59 1018.33 1018.16 1018.84 1019.47 1020.37 1021.66 1023.35 1024.64 1025.27 1025.97
1023.68 1023.38 1023.01 1022.64 1022.35 1022.08 1022.02 1021.96 1021.52 1021.08 1020.90 1020.91 1020.83 1020.73 1020.58 1020.33 1019.88 1020.02 1019.87 1020.55 1020.88 1018.38 1016.88 1015.35 1015.13 1015.36 1015.60 1015.55 1015.64 1015.65 1015.83 1016.46 1016.74 1017.20 1018.63 1019.25 1019.49 1018.80 1018.59 1019.07 1019.91 1021.00 1022.10 1023.28 1024.64 1025.88 1026.34
1023.60 1023.35 1023.03 1022.60 1022.29 1021.88 1021.80 1021.80 1021.71 1021.35 1020.86 1020.71 1020.73 1020.81 1020.69 1019.58 1019.61 1020.25 1020.58 1020.75 1019.11 1017.79 1016.15 1015.36 1015.39 1015.73 1015.86 1015.71 1015.84 1016.09 1016.31 1016.59 1016.75 1016.95 1018.07 1019.18 1019.53 1019.17 1019.03 1019.23 1019.96 1021.35 1022.61 1023.49 1024.95 1026.56 1027.16
1023.30 1023.18 1022.91 1022.56 1022.24 1021.96 1021.69 1021.62 1021.46 1021.35 1020.94 1020.61 1020.93 1021.01 1020.30 1018.99 1019.40 1020.13 1020.63 1019.86 1018.69 1017.19 1015.94 1015.14 1015.14 1015.32 1015.65 1015.76 1016.16 1016.43 1016.73 1016.50 1016.83 1017.07 1017.46 1018.97 1019.83 1019.75 1019.64 1019.76 1020.63 1021.30 1022.76 1024.24 1025.86 1027.69 1028.42
1023.10 1022.83 1022.67 1022.46 1022.22 1021.88 1021.72 1021.48 1021.39 1021.39 1021.08 1020.64 1021.12 1020.91 1019.22 1019.05 1019.42 1020.26 1020.53 1019.60 1018.08 1016.62 1015.86 1015.20 1014.85 1015.10 1015.21 1015.57 1016.11 1016.62 1016.92 1016.86 1016.79 1017.48 1017.68 1018.72 1019.78 1020.72 1020.43 1020.67 1021.19 1022.20 1023.32 1024.88 1026.21 1027.46 1028.39
1022.71 1022.48 1022.28 1022.13 1022.00 1021.81 1021.62 1021.39 1021.35 1021.25 1021.15 1020.86 1021.16 1020.97 1019.13 1019.06 1020.06 1020.60 1020.36 1019.00 1017.49 1016.42 1015.48 1015.07 1014.69 1014.65 1014.79 1015.34 1016.05 1016.58 1016.85 1016.83 1016.87 1017.31 1018.31 1018.76 1020.12 1021.36 1021.13 1020.98 1020.89 1021.75 1022.96 1024.46 1026.59 1028.10 1028.45
1022.35 1022.05 1022.00 1021.75 1021.68 1021.60 1021.43 1021.22 1021.23 1021.20 1021.26 1021.00 1021.11 1020.43 1019.21 1019.13 1020.04 1020.67 1020.04 1018.81 1017.69 1016.76 1015.97 1015.43 1014.89 1014.60 1014.59 1015.03 1016.06 1016.53 1016.83 1017.11 1017.22 1017.72 1018.11 1018.87 1020.34 1021.66 1022.00 1021.84 1021.36 1021.71 1022.62 1023.75 1025.38 1026.72 1027.41
1021.93 1021.55 1021.46 1021.36 1021.23 1021.20 1021.13 1021.11 1021.00 1020.97 1021.13 1021.21 1021.03 1020.83 1019.93 1019.54 1019.76 1019.79 1019.80 1018.81 1017.86 1016.86 1016.30 1015.83 1015.37 1014.82 1014.81 1015.14 1015.87 1016.90 1017.42 1017.76 1017.89 1018.05 1018.38 1018.89 1020.31 1020.63 1020.73 1020.50 1020.73 1021.48 1021.91 1023.02 1024.04 1025.53 1025.77
1021.38 1021.10 1020.82 1020.81 1020.75 1020.77 1020.79 1020.87 1020.80 1020.79 1021.01 1021.31 1020.61 1020.10 1019.33 1019.36 1019.38 1019.54 1019.45 1018.34 1017.55 1016.96 1016.46 1015.90 1015.63 1015.29 1015.25 1015.65 1016.33 1017.11 1017.73 1018.26 1018.53 1018.73 1019.09 1019.62 1020.68 1020.97 1020.81 1020.42 1020.52 1020.69 1021.19 1022.01 1022.63 1023.11 1023.39
1020.85 1020.64 1020.30 1020.21 1020.30 1020.31 1020.39 1020.50 1020.55 1020.61 1021.03 1021.46 1020.97 1019.98 1019.57 1019.19 1018.85 1019.02 1018.81 1017.98 1017.43 1016.99 1016.45 1015.96 1015.78 1015.44 1015.53 1015.83 1016.08 1016.88 1017.40 1017.86 1018.24 1019.30 1019.73 1020.39 1021.31 1021.61 1021.76 1021.17 1020.78 1020.62 1020.58 1020.91 1021.23 1021.51 1021.53
1020.25 1020.12 1019.94 1019.76 1019.73 1019.81 1019.91 1020.01 1020.19 1020.39 1020.83 1021.26 1021.10 1020.30 1019.71 1018.79 1018.79 1018.66 1017.83 1017.39 1016.99 1016.89 1016.34 1015.89 1015.66 1015.73 1015.74 1015.80 1015.92 1016.05 1016.61 1016.99 1017.36 1018.48 1020.00 1020.94 1021.90 1022.90 1023.06 1022.20 1021.48 1020.77 1019.14 1019.27 1019.71 1019.61 1019.84
1019.66 1019.55 1019.42 1019.28 1019.19 1019.27 1019.40 1019.55 1019.69 1019.97 1020.43 1021.04 1021.25 1021.21 1020.60 1018.90 1018.38 1017.73 1017.40 1017.26 1016.91 1016.57 1016.44 1015.78 1015.69 1015.85 1015.74 1015.74 1016.11 1016.84 1017.86 1018.11 1018.49 1018.97 1019.28 1021.00 1022.40 1023.48 1024.32 1023.39 1021.84 1018.39 1017.51 1017.46 1017.87 1018.15 1018.33
1019.01 1018.93 1018.82 1018.74 1018.63 1018.68 1018.76 1018.99 1019.21 1019.48 1019.82 1020.68 1020.85 1021.25 1020.92 1020.04 1018.69 1017.81 1017.34 1016.93 1016.81 1016.61 1016.56 1016.16 1015.65 1015.51 1015.68 1016.40 1017.65 1018.84 1019.62 1019.98 1019.93 1019.65 1019.93 1020.34 1022.19 1024.49 1024.99 1024.11 1020.78 1017.83 1016.65 1016.66 1017.09 1016.53 1016.49
1018.32 1018.21 1018.14 1018.11 1018.08 1018.08 1018.13 1018.30 1018.59 1018.93 1019.29 1020.18 1020.59 1020.74 1021.02 1020.58 1019.19 1018.63 1017.45 1016.92 1016.60 1016.66 1016.74 1015.98 1015.76 1015.74 1016.57 1017.43 1018.51 1019.72 1020.22 1020.12 1020.37 1020.18 1020.45 1021.21 1021.87 1023.79 1025.44 1024.35 1021.40 1017.42 1015.92 1015.47 1016.08 1015.90 1014.81
1017.67 1017.54 1017.44 1017.41 1017.48 1017.56 1017.63 1017.69 1017.89 1018.35 1018.69 1019.60 1020.26 1020.65 1020.86 1020.32 1019.30 1018.94 1018.31 1017.34 1016.48 1016.55 1016.51 1016.17 1015.68 1016.02 1016.58 1018.19 1019.17 1019.67 1019.69 1019.11 1019.57 1019.75 1020.74 1021.76 1022.95 1023.99 1024.84 1023.45 1020.08 1016.98 1015.98 1015.62 1016.40 1015.24 1014.10
1016.96 1016.87 1016.81 1016.74 1016.76 1016.81 1016.91 1017.10 1017.29 1017.63 1018.06 1019.04 1019.71 1020.09 1020.47 1020.10 1019.47 1018.90 1018.40 1018.42 1017.48 1016.66 1016.79 1016.11 1016.03 1015.76 1016.82 1017.88 1018.60 1018.68 1018.98 1018.58 1018.56 1018.71 1019.06 1020.08 1021.71 1023.02 1023.30 1022.49 1019.79 1016.10 1016.08 1015.77 1014.70 1014.31 1014.25
1016.17 1016.09 1016.06 1016.06 1016.05 1016.12 1016.20 1016.32 1016.58 1016.81 1017.25 1018.06 1019.17 1019.41 1019.99 1020.39 1019.86 1019.28 1018.81 1018.45 1018.28 1018.02 1018.19 1016.85 1016.02 1015.55 1015.50 1016.80 1017.39 1017.73 1018.09 1018.09 1017.63 1018.46 1018.23 1018.87 1018.44 1019.51 1019.68 1018.57 1016.58 1015.73 1015.34 1014.67 1014.53 1014.39 1014.51
Wind_Speed
2 2 2 2 4 6 8 9 10 11 11 13 15 15 16 17 18 19 19 18 18 17 15 13 14 14 2 0 4 5 9 10 5 5 4 3 4 1 4 3 4 11 5 7 11 16 16
4 3 3 4 5 8 6 8 9 10 11 13 14 15 17 17 18 19 19 19 19 19 16 12 13 13 3 1 4 4 6 7 3 4 6 5 2 1 3 3 3 6 8 8 10 12 14
9 6 5 5 7 10 5 6 8 10 11 13 14 15 17 18 18 18 19 20 20 18 16 12 9 4 1 6 1 6 5 3 1 1 3 1 1 0 3 5 2 7 14 8 4 4 4
9 8 6 6 8 8 3 5 7 9 11 12 14 15 16 17 18 19 20 20 21 19 16 12 6 3 4 5 2 7 2 3 3 3 2 4 1 1 3 4 7 6 6 6 5 11 7
10 10 9 7 9 11 6 6 7 8 10 12 14 16 16 16 18 18 19 22 20 15 12 10 2 3 6 9 4 4 1 3 5 2 3 3 3 3 6 6 5 6 6 8 4 14 4
9 10 9 10 9 7 8 9 9 8 8 11 14 16 17 16 17 18 21 21 12 9 3 2 1 3 4 3 4 4 4 2 2 6 5 8 6 5 5 5 6 6 7 6 6 3 19
12 10 10 10 11 9 9 11 9 8 7 10 13 16 17 17 18 18 12 6 7 5 5 4 2 2 3 6 2 4 3 5 2 5 4 6 9 5 3 3 6 8 8 12 1 6 11
16 15 11 10 10 10 11 11 10 7 5 9 12 15 17 18 18 19 1 3 2 4 7 5 7 5 7 2 3 4 3 5 4 4 2 8 6 2 6 7 15 11 12 7 7 3 7
14 17 8 11 12 12 12 11 9 7 7 8 11 15 17 18 21 4 2 4 7 3 0 7 5 4 4 4 1 4 3 1 5 4 4 6 2 6 8 7 9 4 7 3 8 6 8
10 12 14 13 11 12 13 11 9 10 7 9 9 12 15 20 3 4 1 11 8 2 5 6 4 5 4 4 1 1 1 3 4 7 6 7 4 7 9 7 5 5 3 6 8 4 4
12 10 11 11 13 16 13 10 10 11 7 7 9 10 12 9 3 2 5 11 7 6 5 2 3 1 3 6 5 1 1 3 5 4 6 4 4 5 6 3 3 4 2 4 4 5 5
15 12 11 10 10 13 18 9 9 9 8 7 8 8 11 3 3 5 7 7 5 10 8 3 4 4 5 1 2 3 2 4 3 6 7 4 3 3 3 3 4 5 6 8 5 4 3
14 14 13 11 9 9 15 18 10 9 8 8 8 8 6 1 4 5 6 5 8 6 4 5 5 5 3 4 3 3 5 3 6 6 3 4 3 2 4 6 4 7 6 4 4 4 5
14 15 13 12 11 9 7 14 17 10 8 8 8 8 5 5 5 6 4 6 5 5 6 2 5 6 5 5 3 3 5 5 2 5 5 5 1 2 1 4 6 3 5 5 6 4 3
14 14 13 11 11 11 7 5 13 16 12 7 5 3 3 5 4 3 5 3 10 7 4 5 5 4 4 4 4 3 5 7 5 4 7 5 2 1 3 2 5 3 2 2 6 3 3
14 13 13 12 11 11 8 6 8 14 13 4 1 3 4 2 6 3 5 7 4 4 4 0 7 6 8 7 5 4 7 4 6 3 4 6 5 1 1 4 6 3 4 4 4 5 4
15 14 13 12 12 10 10 6 6 11 16 2 2 3 4 5 3 4 5 7 4 6 5 2 2 6 6 7 7 5 8 1 3 5 3 6 6 2 5 4 7 2 2 5 4 3 5
18 15 14 13 12 11 10 8 7 8 13 5 2 1 2 2 4 1 4 5 2 2 3 4 3 3 8 9 5 6 9 4 7 7 8 3 6 4 4 4 6 5 6 6 7 6 1
19 19 15 14 12 11 10 10 6 5 5 1 2 3 2 4 4 2 4 4 2 2 2 4 3 1 1 7 5 3 5 4 6 5 9 7 1 4 5 7 4 4 5 5 6 3 5
18 19 16 16 13 13 10 10 9 5 5 3 2 1 4 2 3 7 4 5 5 3 4 3 3 3 2 3 6 6 4 3 2 3 6 6 3 7 9 7 6 6 7 8 6 4 5
17 17 17 14 14 12 11 10 9 6 0 1 2 4 4 5 6 4 5 3 9 6 5 4 2 5 2 1 4 4 3 3 5 4 4 5 5 3 2 3 5 5 11 13 8 5 6
16 17 17 15 14 13 12 11 9 6 11 1 2 2 2 2 6 16 11 6 5 10 5 6 5 3 1 3 5 9 7 4 6 2 3 3 2 3 2 1 2 2 9 13 13 6 7
16 15 16 15 13 16 13 13 11 8 9 1 1 3 3 5 6 9 9 14 8 5 5 5 5 1 1 5 6 4 4 6 10 11 5 6 6 4 4 1 4 8 15 17 11 8 12
16 15 15 15 14 13 16 14 13 11 7 3 1 1 3 3 7 8 9 14 12 10 11 2 7 6 3 5 5 9 10 9 7 5 5 8 6 3 3 2 1 9 3 11 19 10 15
17 15 16 16 14 15 15 17 15 14 11 2 2 2 1 4 4 9 9 8 11 12 12 9 5 3 6 4 5 6 6 7 6 2 4 4 6 3 6 4 7 5 7 9 13 15 18
17 16 16 15 14 14 16 16 18 15 15 4 2 2 2 0 3 7 7 12 8 4 2 6 9 3 4 3 4 7 6 6 5 4 4 6 6 6 3 5 10 6 2 7 6 8 13
17 16 16 16 16 16 15 15 16 18 17 5 3 5 2 2 4 2 3 3 2 4 3 3 4 5 6 2 3 4 4 5 7 10 7 4 3 7 3 4 9 9 4 2 7 10 5
18 17 17 18 17 17 16 16 16 19 19 7 3 8 3 2 5 3 1 3 6 1 3 4 3 2 3 5 5 5 4 7 5 6 8 9 9 4 4 3 9 5 4 9 8 1 5
20 19 18 19 19 18 18 17 17 21 21 14 3 6 5 3 4 2 4 8 8 9 3 5 2 2 5 4 0 4 3 2 7 5 3 4 9 8 10 10 5 4 5 5 2 3 5
Wind_Direction
17 352 333 328 326 328 339 351 346 343 341 343 341 340 338 335 332 331 329 326 326 323 318 319 323 324 13 277 253 267 338 324 347 33 24 8 70 42 114 94 76 107 115 79 91 91 82
291 285 284 287 295 300 309 342 341 341 341 339 337 337 336 334 333 331 327 325 324 319 309 313 320 327 36 304 257 328 334 317 11 46 354 31 62 91 107 82 114 140 110 123 81 83 81
286 260 269 270 285 294 301 337 331 337 341 341 337 335 334 332 330 329 326 323 317 314 305 300 324 342 309 231 282 320 298 271 276 16 355 294 225 184 123 97 125 112 104 71 55 193 72
296 263 256 263 277 295 310 311 314 326 335 339 339 338 333 330 329 328 323 319 314 308 299 285 294 230 248 269 288 308 273 316 17 271 223 265 232 243 65 120 38 91 55 99 29 349 9
299 299 259 264 270 293 248 271 284 306 325 333 338 339 336 331 328 326 321 315 305 295 275 276 245 77 287 319 323 298 293 349 314 350 286 291 56 80 36 83 49 18 135 110 40 1 102
279 292 297 264 260 283 279 291 274 276 304 323 333 337 337 333 331 327 323 307 289 314 291 192 22 46 293 287 295 321 323 321 346 334 29 42 49 65 41 73 176 161 117 56 89 350 73
297 272 285 289 268 273 293 308 297 259 278 317 327 332 335 333 331 326 341 358 20 351 23 216 198 244 271 286 345 348 343 355 31 42 76 13 67 79 53 63 114 103 94 101 75 164 73
4 338 284 278 280 276 283 302 309 304 294 313 323 328 332 332 326 321 51 63 111 202 315 259 251 273 246 170 355 324 5 60 38 81 45 38 70 20 100 74 100 101 107 99 43 95 82
1 1 332 311 284 280 284 281 297 292 293 300 318 326 330 327 319 11 330 5 321 131 233 291 207 194 209 125 210 306 46 53 80 72 62 110 136 71 80 68 101 53 124 136 136 112 45
352 347 3 8 344 327 302 295 289 298 275 299 315 325 331 329 45 330 18 327 318 89 55 266 198 246 130 115 357 202 72 121 55 128 96 82 321 102 82 77 83 79 126 106 110 120 155
333 329 329 342 354 0 316 286 281 297 276 302 315 325 339 6 294 27 308 316 302 57 33 244 164 156 145 138 139 315 308 50 124 139 92 231 99 92 88 134 105 164 129 101 104 87 90
329 319 316 314 335 353 342 300 276 282 280 286 307 322 342 342 323 256 308 303 47 46 261 197 138 156 121 178 178 139 123 51 97 69 50 103 171 93 148 83 78 114 70 39 53 78 39
336 323 315 316 311 330 336 352 304 273 270 275 304 313 322 271 245 333 318 44 49 131 292 192 177 146 153 172 174 137 141 115 138 108 91 32 22 0 91 79 47 70 77 34 13 14 216
319 327 320 307 309 294 325 339 351 313 269 273 296 319 269 220 268 0 18 62 100 230 215 134 121 110 171 161 221 139 121 145 102 98 119 135 296 181 112 138 160 99 146 155 183 186 220
306 314 322 329 324 321 290 322 332 346 324 272 346 324 285 256 214 128 80 92 205 211 208 166 68 124 225 214 159 151 164 171 176 154 122 125 351 39 96 94 101 161 68 172 103 25 73
303 300 312 315 321 332 323 321 341 330 324 269 65 332 255 238 147 87 88 227 238 229 346 52 163 173 186 190 154 144 182 199 162 142 122 184 107 214 144 81 42 129 139 67 2 130 227
291 290 290 301 305 309 315 303 327 320 339 203 62 337 256 163 101 77 175 224 251 251 216 216 228 178 187 174 164 173 202 9 150 146 117 129 103 246 98 192 173 127 106 57 105 126 155
299 285 284 281 287 298 301 310 297 317 335 161 132 273 292 141 94 352 197 204 267 290 221 257 232 237 176 166 148 171 183 212 171 143 151 174 126 143 194 318 183 164 162 139 123 247 97
293 292 278 278 269 278 295 299 263 316 334 324 201 253 333 92 159 242 264 267 280 307 0 13 292 322 109 161 147 132 144 341 147 135 163 185 119 94 0 350 325 193 177 127 118 99 202
292 290 284 261 267 261 271 286 287 235 307 298 174 217 313 200 154 151 177 241 220 232 259 255 278 316 315 120 44 148 124 51 48 110 115 88 135 156 181 197 154 190 167 163 134 134 173
289 286 284 258 259 265 262 270 285 237 343 61 233 218 203 199 194 170 194 237 189 211 213 194 239 219 242 96 83 121 108 122 34 116 69 113 153 159 183 171 160 186 176 178 183 181 164
287 283 284 284 249 253 255 255 265 230 100 145 278 214 266 201 164 192 204 226 210 205 202 206 209 181 291 209 192 189 142 171 179 154 113 8 157 91 320 305 105 229 195 195 207 189 243
284 279 276 280 270 245 247 250 244 236 143 187 278 305 288 197 167 187 209 217 218 183 271 240 206 218 134 244 225 232 169 146 165 145 140 130 131 102 244 322 81 312 216 204 207 205 193
281 276 273 271 267 258 245 243 241 238 186 149 126 21 299 241 195 195 203 206 224 211 216 238 215 171 248 109 86 46 45 69 61 58 122 133 111 94 174 36 247 238 207 217 211 211 217
279 275 268 262 261 257 248 238 235 232 220 160 149 166 253 293 347 210 201 192 218 236 241 247 225 209 158 77 73 52 352 30 326 157 134 142 120 95 139 205 289 254 205 172 172 239 209
280 277 275 271 267 260 255 242 231 227 230 158 177 113 175 297 240 336 229 213 217 191 238 244 256 149 81 99 111 150 179 171 209 120 76 71 74 110 107 148 211 247 317 136 101 284 198
279 278 276 272 268 266 263 255 238 227 222 166 167 153 213 223 274 162 278 268 191 172 194 212 195 155 132 143 111 148 199 177 164 164 159 122 38 147 142 228 285 246 242 162 111 238 186
280 277 273 273 270 269 268 257 242 228 221 174 177 178 186 262 271 237 204 328 341 17 167 239 69 302 87 175 156 195 140 202 132 165 171 160 146 175 99 90 266 191 105 175 224 237 169
282 277 275 273 269 265 265 261 252 228 215 194 159 171 180 211 265 297 280 272 253 253 303 308 264 240 191 125 228 125 126 131 143 195 159 185 179 178 177 205 234 230 244 283 238 188 170